Location: Newark
(22.3060°N, 114.2134°E)
Time: 19:38:27
(UTC+00:00)

Explorer 11/Cluster Stage 4 - Pass Details

Date: 01 August 2021
Orbit: 467 x 1256 km, 28.8° (Epoch: 27 September)

Event Time Altitude Azimuth Distance (km) Brightness Sun altitude
Rises 23:12:06 0° 235° (SW) 3,691 9.5 16.2°
Reaches altitude 10° 23:14:39 10° 231° (SW) 2,848 9.0 16.8°
Maximum altitude 23:21:43 60° 153° (SSE) 1,323 8.1 18.4°
Drops below altitude 10° 23:29:44 10° 76° (ENE) 3,215 12.1 20.2°
Sets 23:32:46 0° 73° (ENE) 4,196 11.9 20.9°
